Time,TemperatureF,DewpointF,PressureIn,WindDirection,WindDirectionDegrees,WindSpeedMPH,WindSpeedGustMPH,Humidity,HourlyPrecipIn,Conditions,Clouds,dailyrainin,SoftwareType,DateUTC
2013-01-06 16:03:00,27.0,23.0,29.91,West,281,6.0,9.0,83,0.00,,,0.00,,2013-01-06 21:03:00,
2013-01-06 16:22:00,27.0,23.0,29.91,WNW,289,4.0,6.0,84,0.00,,,0.00,,2013-01-06 21:22:00,
2013-01-06 16:33:00,26.0,23.0,29.91,NNW,332,2.0,4.0,87,0.00,,,0.00,,2013-01-06 21:33:00,
2013-01-06 16:43:00,26.0,23.0,29.91,NNW,332,2.0,4.0,87,0.00,,,0.00,,2013-01-06 21:43:00,
2013-01-06 16:52:00,25.0,22.0,29.91,NW,325,3.0,5.0,88,0.00,,,0.00,,2013-01-06 21:52:00,
2013-01-06 17:02:00,24.0,21.0,29.91,North,360,2.0,5.0,89,0.00,,,0.00,,2013-01-06 22:02:00,
2013-01-06 17:12:00,24.0,21.0,29.91,North,360,2.0,5.0,89,0.00,,,0.00,,2013-01-06 22:12:00,
2013-01-06 17:22:00,23.0,21.0,29.92,North,355,2.0,5.0,90,0.00,,,0.00,,2013-01-06 22:22:00,
2013-01-06 17:33:00,23.0,20.0,29.92,NW,325,1.0,4.0,89,0.00,,,0.00,,2013-01-06 22:33:00,
2013-01-06 17:43:00,23.0,20.0,29.92,NW,325,1.0,4.0,89,0.00,,,0.00,,2013-01-06 22:43:00,
2013-01-06 17:52:00,23.0,20.0,29.92,NW,325,2.0,3.0,89,0.00,,,0.00,,2013-01-06 22:52:00,
2013-01-06 18:02:00,22.0,19.0,29.92,NE,52,1.0,5.0,88,0.00,,,0.00,,2013-01-06 23:02:00,
2013-01-06 18:12:00,22.0,19.0,29.92,NE,52,1.0,5.0,88,0.00,,,0.00,,2013-01-06 23:12:00,
2013-01-06 18:22:00,21.0,18.0,29.92,NNE,30,2.0,4.0,89,0.00,,,0.00,,2013-01-06 23:22:00,
2013-01-06 18:33:00,21.0,18.0,29.93,North,355,1.0,2.0,89,0.00,,,0.00,,2013-01-06 23:33:00,
2013-01-06 18:43:00,21.0,18.0,29.93,North,355,1.0,2.0,89,0.00,,,0.00,,2013-01-06 23:43:00,
2013-01-06 18:52:00,20.0,17.0,29.93,North,355,2.0,3.0,88,0.01,,,0.01,,2013-01-06 23:52:00,
2013-01-06 19:03:00,20.0,17.0,29.94,North,355,1.0,2.0,89,0.01,,,0.01,,2013-01-07 00:03:00,
2013-01-06 19:12:00,20.0,17.0,29.94,North,355,1.0,2.0,89,0.01,,,0.01,,2013-01-07 00:12:00,
2013-01-06 19:23:00,21.0,19.0,29.94,North,355,0.0,1.0,90,0.01,,,0.01,,2013-01-07 00:23:00,
2013-01-06 19:33:00,20.0,17.0,29.95,NE,49,2.0,3.0,89,0.01,,,0.01,,2013-01-07 00:33:00,
2013-01-06 19:43:00,20.0,17.0,29.95,NE,49,2.0,3.0,89,0.01,,,0.01,,2013-01-07 00:43:00,
2013-01-06 19:53:00,20.0,18.0,29.95,NE,44,2.0,3.0,90,0.00,,,0.01,,2013-01-07 00:53:00,
2013-01-06 20:02:00,22.0,20.0,29.96,NE,40,2.0,3.0,90,0.00,,,0.01,,2013-01-07 01:02:00,
2013-01-06 20:12:00,22.0,20.0,29.96,NE,40,2.0,3.0,90,0.00,,,0.01,,2013-01-07 01:12:00,
2013-01-06 20:23:00,21.0,18.0,29.96,NNE,26,3.0,4.0,89,0.00,,,0.01,,2013-01-07 01:23:00,
2013-01-06 20:32:00,22.0,20.0,29.96,NNE,15,1.0,3.0,90,0.00,,,0.01,,2013-01-07 01:32:00,
2013-01-06 20:42:00,22.0,20.0,29.96,NNE,15,1.0,3.0,90,0.00,,,0.01,,2013-01-07 01:42:00,
2013-01-06 20:52:00,23.0,20.0,29.96,NNE,20,2.0,3.0,89,0.00,,,0.01,,2013-01-07 01:52:00,
2013-01-06 21:02:00,23.0,20.0,29.96,NNE,21,1.0,2.0,89,0.00,,,0.01,,2013-01-07 02:02:00,
2013-01-06 21:12:00,23.0,20.0,29.96,NNE,21,1.0,2.0,89,0.00,,,0.01,,2013-01-07 02:12:00,
2013-01-06 21:23:00,23.0,20.0,29.96,NNE,32,2.0,4.0,89,0.00,,,0.01,,2013-01-07 02:23:00,
2013-01-06 21:32:00,23.0,20.0,29.96,NNE,19,3.0,5.0,89,0.00,,,0.01,,2013-01-07 02:32:00,
2013-01-06 21:42:00,23.0,20.0,29.96,NNE,19,3.0,5.0,89,0.00,,,0.01,,2013-01-07 02:42:00,
2013-01-06 21:52:00,23.0,21.0,29.96,NNE,15,4.0,6.0,90,0.00,,,0.01,,2013-01-07 02:52:00,
2013-01-06 22:02:00,23.0,21.0,29.96,NNE,28,4.0,8.0,91,0.00,,,0.01,,2013-01-07 03:02:00,
2013-01-06 22:12:00,23.0,21.0,29.96,NNE,28,4.0,8.0,91,0.00,,,0.01,,2013-01-07 03:12:00,
2013-01-06 22:22:00,24.0,22.0,29.96,NE,47,6.0,10.0,91,0.00,,,0.01,,2013-01-07 03:22:00,
2013-01-06 22:33:00,24.0,22.0,29.96,NE,56,7.0,10.0,91,0.00,,,0.01,,2013-01-07 03:33:00,
2013-01-06 22:43:00,24.0,22.0,29.96,NE,56,7.0,10.0,91,0.00,,,0.01,,2013-01-07 03:43:00,
2013-01-06 22:52:00,23.0,21.0,29.96,NE,40,6.0,11.0,91,0.00,,,0.01,,2013-01-07 03:52:00,
2013-01-06 23:02:00,23.0,21.0,29.96,North,5,5.0,11.0,90,0.00,,,0.01,,2013-01-07 04:02:00,
2013-01-06 23:12:00,23.0,21.0,29.96,North,5,5.0,11.0,90,0.00,,,0.01,,2013-01-07 04:12:00,
2013-01-06 23:22:00,23.0,21.0,29.96,NE,48,7.0,13.0,90,0.00,,,0.01,,2013-01-07 04:22:00,
2013-01-06 23:33:00,24.0,22.0,29.95,ENE,67,5.0,11.0,90,0.00,,,0.01,,2013-01-07 04:33:00,
2013-01-06 23:42:00,24.0,22.0,29.95,ENE,67,5.0,11.0,90,0.00,,,0.01,,2013-01-07 04:42:00,
2013-01-06 23:52:00,24.0,22.0,29.95,NNE,32,7.0,12.0,90,0.00,,,0.01,,2013-01-07 04:52:00,